• Em Portugal
  • Lista de países
  • Para 7 dias
  • Temperatura da água
  • Mapas de satélite
  • Mapa do tempo
  • Widgets de tempo
  • user-avatar
    Iniciar Sessão

    Previsão horária em Benguela

    Hoje, 17 Dezembro, Domingo

    Tempo Temperatura Precipitação Vento Pressão Humidade
    00:00 +28°C° 0 mm 2 m/s 757 mmHg 79%
    01:00 +28°C° 0 mm 2 m/s 757 mmHg 79%
    02:00 +28°C° 0,1 mm 2 m/s 757 mmHg 81%
    03:00 +28°C° 0,1 mm 2 m/s 757 mmHg 82%
    04:00 +27°C° 0,1 mm 2 m/s 757 mmHg 83%
    05:00 +28°C° 0,2 mm 2 m/s 757 mmHg 83%
    06:00 +28°C° 0,2 mm 1 m/s 758 mmHg 84%
    07:00 +28°C° 0,2 mm 1 m/s 758 mmHg 84%
    08:00 +29°C° 0,3 mm 1 m/s 758 mmHg 78%
    09:00 +31°C° 0,3 mm 2 m/s 758 mmHg 73%
    10:00 +32°C° 0,3 mm 2 m/s 758 mmHg 68%
    11:00 +33°C° 0,3 mm 3 m/s 758 mmHg 65%
    12:00 +34°C° 0,3 mm 3 m/s 758 mmHg 62%
    13:00 +35°C° 0,3 mm 4 m/s 757 mmHg 59%
    14:00 +34°C° 0,2 mm 4 m/s 757 mmHg 61%
    15:00 +33°C° 0,2 mm 4 m/s 757 mmHg 63%
    16:00 +33°C° 0,2 mm 3 m/s 756 mmHg 65%
    17:00 +31°C° 0,2 mm 3 m/s 757 mmHg 70%
    18:00 +30°C° 0,2 mm 2 m/s 757 mmHg 74%
    19:00 +28°C° 0,2 mm 2 m/s 758 mmHg 79%
    20:00 +28°C° 0,4 mm 2 m/s 758 mmHg 81%
    21:00 +28°C° 0,4 mm 1 m/s 759 mmHg 83%
    22:00 +28°C° 0,4 mm 1 m/s 759 mmHg 84%
    23:00 +28°C° 0,4 mm 1 m/s 759 mmHg 85%

    Amanhã, 18 Dezembro, Segunda-feira

    Tempo Temperatura Precipitação Vento Pressão Humidade
    00:00 +28°C° 0,4 mm 1 m/s 759 mmHg 86%
    01:00 +28°C° 0,4 mm 1 m/s 759 mmHg 86%
    02:00 +28°C° 0,2 mm 1 m/s 759 mmHg 87%
    03:00 +27°C° 0,2 mm 1 m/s 759 mmHg 87%
    04:00 +27°C° 0,2 mm 1 m/s 758 mmHg 88%
    05:00 +28°C° 0,1 mm 1 m/s 759 mmHg 87%
    06:00 +28°C° 0,1 mm 1 m/s 759 mmHg 86%
    07:00 +28°C° 0,1 mm 1 m/s 759 mmHg 85%
    08:00 +29°C° 0,1 mm 1 m/s 759 mmHg 81%
    09:00 +29°C° 0,1 mm 2 m/s 759 mmHg 78%
    10:00 +30°C° 0,1 mm 2 m/s 759 mmHg 74%
    11:00 +30°C° 0,2 mm 2 m/s 759 mmHg 75%
    12:00 +30°C° 0,2 mm 2 m/s 759 mmHg 76%
    13:00 +30°C° 0,2 mm 2 m/s 758 mmHg 77%
    14:00 +30°C° 0,1 mm 2 m/s 758 mmHg 76%
    15:00 +30°C° 0,1 mm 2 m/s 757 mmHg 75%
    16:00 +30°C° 0,1 mm 3 m/s 756 mmHg 73%
    17:00 +30°C° 0 mm 2 m/s 757 mmHg 77%
    18:00 +29°C° 0 mm 2 m/s 757 mmHg 81%
    19:00 +28°C° 0 mm 2 m/s 757 mmHg 84%
    20:00 +28°C° 0 mm 2 m/s 758 mmHg 85%
    21:00 +28°C° 0 mm 2 m/s 758 mmHg 86%
    22:00 +28°C° 0 mm 2 m/s 759 mmHg 87%
    23:00 +27°C° 0 mm 2 m/s 758 mmHg 88%

    Depois de amanhã, 19 Dezembro, Terça-feira

    Tempo Temperatura Precipitação Vento Pressão Humidade
    00:00 +27°C° 0 mm 2 m/s 758 mmHg 90%
    01:00 +27°C° 0 mm 2 m/s 757 mmHg 91%
    02:00 +26°C° 0 mm 1 m/s 757 mmHg 92%
    03:00 +26°C° 0 mm 1 m/s 757 mmHg 92%
    04:00 +26°C° 0 mm 1 m/s 757 mmHg 93%
    05:00 +27°C° 0 mm 1 m/s 757 mmHg 91%
    06:00 +27°C° 0 mm 1 m/s 757 mmHg 89%
    07:00 +27°C° 0 mm 1 m/s 758 mmHg 87%
    08:00 +29°C° 0 mm 1 m/s 758 mmHg 82%
    09:00 +30°C° 0 mm 2 m/s 758 mmHg 76%
    10:00 +31°C° 0 mm 2 m/s 758 mmHg 70%
    11:00 +33°C° 0,1 mm 3 m/s 758 mmHg 69%
    12:00 +33°C° 0,1 mm 4 m/s 757 mmHg 69%
    13:00 +33°C° 0,1 mm 4 m/s 757 mmHg 68%
    14:00 +33°C° 0,1 mm 4 m/s 756 mmHg 69%
    15:00 +33°C° 0,1 mm 4 m/s 756 mmHg 70%
    16:00 +32°C° 0,1 mm 4 m/s 756 mmHg 71%
    17:00 +30°C° 0 mm 3 m/s 756 mmHg 76%
    18:00 +29°C° 0 mm 3 m/s 757 mmHg 80%
    19:00 +28°C° 0 mm 2 m/s 757 mmHg 85%
    20:00 +28°C° 0 mm 2 m/s 758 mmHg 86%
    21:00 +27°C° 0 mm 2 m/s 758 mmHg 87%
    22:00 +27°C° 0 mm 1 m/s 759 mmHg 88%
    23:00 +27°C° 0 mm 1 m/s 758 mmHg 88%

    20 Dezembro, Quarta-feira

    Tempo Temperatura Precipitação Vento Pressão Humidade
    00:00 +27°C° 0 mm 2 m/s 758 mmHg 88%
    01:00 +27°C° 0 mm 2 m/s 757 mmHg 89%
    02:00 +27°C° 0 mm 1 m/s 757 mmHg 89%
    03:00 +26°C° 0 mm 1 m/s 757 mmHg 90%
    04:00 +26°C° 0 mm 1 m/s 757 mmHg 90%
    05:00 +27°C° 0 mm 1 m/s 757 mmHg 88%
    06:00 +27°C° 0 mm 1 m/s 758 mmHg 87%
    07:00 +28°C° 0 mm 1 m/s 758 mmHg 85%
    08:00 +29°C° 0 mm 1 m/s 758 mmHg 76%
    09:00 +31°C° 0 mm 2 m/s 758 mmHg 68%
    10:00 +34°C° 0 mm 2 m/s 758 mmHg 59%
    11:00 +34°C° 0 mm 3 m/s 758 mmHg 58%
    12:00 +35°C° 0 mm 4 m/s 757 mmHg 56%
    13:00 +35°C° 0 mm 5 m/s 757 mmHg 55%
    14:00 +34°C° 0 mm 5 m/s 757 mmHg 59%
    15:00 +33°C° 0 mm 4 m/s 757 mmHg 63%
    16:00 +33°C° 0 mm 4 m/s 757 mmHg 67%
    17:00 +30°C° 0 mm 4 m/s 757 mmHg 72%
    18:00 +29°C° 0 mm 3 m/s 758 mmHg 77%
    19:00 +28°C° 0 mm 3 m/s 758 mmHg 83%
    20:00 +28°C° 0 mm 2 m/s 759 mmHg 84%
    21:00 +28°C° 0 mm 2 m/s 759 mmHg 85%
    22:00 +28°C° 0 mm 2 m/s 760 mmHg 86%
    23:00 +27°C° 0 mm 2 m/s 759 mmHg 86%

    21 Dezembro, Quinta-feira

    Tempo Temperatura Precipitação Vento Pressão Humidade
    00:00 +27°C° 0 mm 2 m/s 759 mmHg 87%
    01:00 +27°C° 0 mm 2 m/s 759 mmHg 87%
    02:00 +27°C° 0 mm 2 m/s 759 mmHg 88%
    03:00 +27°C° 0 mm 2 m/s 758 mmHg 88%
    04:00 +27°C° 0 mm 2 m/s 758 mmHg 89%
    05:00 +27°C° 0 mm 2 m/s 758 mmHg 87%
    06:00 +27°C° 0 mm 2 m/s 759 mmHg 85%
    07:00 +28°C° 0 mm 2 m/s 759 mmHg 84%
    08:00 +30°C° 0 mm 2 m/s 759 mmHg 75%
    09:00 +31°C° 0 mm 2 m/s 759 mmHg 67%
    10:00 +34°C° 0 mm 3 m/s 759 mmHg 58%
    11:00 +35°C° 0 mm 3 m/s 759 mmHg 56%
    12:00 +35°C° 0 mm 4 m/s 758 mmHg 53%
    13:00 +36°C° 0 mm 5 m/s 758 mmHg 51%
    14:00 +35°C° 0 mm 5 m/s 757 mmHg 54%
    15:00 +34°C° 0 mm 5 m/s 757 mmHg 57%
    16:00 +34°C° 0 mm 5 m/s 757 mmHg 59%
    17:00 +32°C° 0 mm 5 m/s 757 mmHg 66%
    18:00 +30°C° 0 mm 4 m/s 758 mmHg 72%
    19:00 +28°C° 0 mm 3 m/s 758 mmHg 78%
    20:00 +28°C° 0 mm 3 m/s 759 mmHg 79%
    21:00 +28°C° 0 mm 3 m/s 759 mmHg 81%
    22:00 +27°C° 0 mm 3 m/s 760 mmHg 82%
    23:00 +27°C° 0 mm 3 m/s 759 mmHg 83%

    22 Dezembro, Sexta-feira

    Tempo Temperatura Precipitação Vento Pressão Humidade
    00:00 +27°C° 0 mm 2 m/s 759 mmHg 84%
    01:00 +27°C° 0 mm 2 m/s 759 mmHg 85%
    02:00 +26°C° 0 mm 2 m/s 759 mmHg 86%
    03:00 +26°C° 0 mm 2 m/s 759 mmHg 87%
    04:00 +26°C° 0 mm 2 m/s 758 mmHg 88%
    05:00 +27°C° 0 mm 2 m/s 759 mmHg 85%
    06:00 +27°C° 0 mm 2 m/s 759 mmHg 83%
    07:00 +28°C° 0 mm 2 m/s 759 mmHg 80%
    08:00 +29°C° 0 mm 2 m/s 759 mmHg 72%
    09:00 +31°C° 0 mm 2 m/s 759 mmHg 64%
    10:00 +34°C° 0 mm 3 m/s 759 mmHg 56%
    11:00 +35°C° 0 mm 3 m/s 758 mmHg 54%
    12:00 +35°C° 0 mm 4 m/s 758 mmHg 53%
    13:00 +36°C° 0 mm 4 m/s 757 mmHg 51%
    14:00 +35°C° 0 mm 4 m/s 756 mmHg 54%
    15:00 +34°C° 0 mm 5 m/s 756 mmHg 57%
    16:00 +34°C° 0 mm 5 m/s 755 mmHg 59%
    17:00 +32°C° 0 mm 4 m/s 756 mmHg 66%
    18:00 +29°C° 0 mm 4 m/s 756 mmHg 73%
    19:00 +28°C° 0 mm 3 m/s 757 mmHg 79%
    20:00 +27°C° 0 mm 3 m/s 757 mmHg 82%
    21:00 +27°C° 0 mm 2 m/s 758 mmHg 84%
    22:00 +27°C° 0 mm 2 m/s 759 mmHg 86%
    23:00 +26°C° 0 mm 2 m/s 758 mmHg 87%
    Mostrar mais